Everett, WA

3:38 PM PST on November 14, 2019 (GMT -0800)
Snohomish County

Weather History for KPAE - August, 2019

Change the Weather History Date:

Thursday, August 8, 2019

  Actual Average Record
Temperature  
Mean Temperature 62 °F -  
Max Temperature 68 °F 75 °F 89 °F (2018)
Min Temperature 59 °F 55 °F 45 °F (1992)
Degree Days  
Heating Degree Days 2    
Growing Degree Days 12 (Base 50)    
Moisture  
Dew Point 56 °F    
Average Humidity 80    
Maximum Humidity 90    
Minimum Humidity 66    
Precipitation  
Precipitation 0.00 in - - ()
Sea Level Pressure  
Sea Level Pressure 30.00 in    
Wind  
Wind Speed 6 mph (SSW)    
Max Wind Speed 12 mph    
Max Gust Speed -    
Visibility 10 miles    
Events      
Averages and records for this station are not official NWS values.
T = Trace of Precipitation, MM = Missing Value Source: NWS Daily Summary

Daily Weather History Graph

Daily Weather History Graph

Search for Another Location

Airport or City:

Astronomy

Aug. 08, 2019 Rise Set
Actual Time 5:54 AM PDT 8:33 PM PDT
Civil Twilight 5:19 AM PDT 9:09 PM PDT
Nautical Twilight 4:34 AM PDT 9:53 PM PDT
Astronomical Twilight 3:42 AM PDT 10:45 PM PDT
Moon 3:17 PM PDT (8/8) 12:22 AM PDT (8/8)
Length of Visible Light 15h 49m
Length of Day
14h 39m
First Quarter, 61% of the Moon is Illuminated
Aug 8
First Quarter
Aug 15
Full
Aug 23
Last Quarter
Aug 30
New
Sep 5
First Quarter

Hourly Weather History & Observations

Time (PDT) Temp. Dew Point Humidity Pressure Visibility Wind Dir Wind Speed Gust Speed Precip Events Conditions
12:53 AM 60.1 °F 55.9 °F 86% 29.98 in 10.0 mi SW 4.6 mph - N/A   Clear
1:53 AM 59.0 °F 55.9 °F 90% 29.99 in 10.0 mi SSW 4.6 mph - N/A   Clear
2:22 AM 59.0 °F 55.9 °F 90% 29.99 in 10.0 mi South 9.2 mph - N/A   Mostly Cloudy
2:53 AM 59.0 °F 55.0 °F 87% 29.98 in 10.0 mi SSW 6.9 mph - N/A   Overcast
3:53 AM 60.1 °F 55.9 °F 86% 29.98 in 10.0 mi South 5.8 mph - N/A   Overcast
4:21 AM 60.1 °F 55.9 °F 86% 29.99 in 10.0 mi SSW 4.6 mph - N/A   Overcast
4:38 AM 60.1 °F 55.9 °F 86% 29.99 in 10.0 mi SW 3.5 mph - N/A   Overcast
4:53 AM 60.1 °F 55.9 °F 86% 29.99 in 10.0 mi SSW 4.6 mph - N/A   Overcast
5:53 AM 60.1 °F 55.9 °F 86% 29.99 in 10.0 mi SSW 8.1 mph - N/A   Overcast
6:21 AM 60.1 °F 55.9 °F 86% 30.00 in 10.0 mi South 6.9 mph - N/A   Overcast
6:53 AM 60.1 °F 55.9 °F 86% 30.00 in 10.0 mi South 5.8 mph - N/A   Overcast
7:30 AM 60.1 °F 55.9 °F 86% 30.01 in 9.0 mi South 9.2 mph - N/A   Overcast
7:53 AM 60.1 °F 55.9 °F 86% 30.01 in 8.0 mi South 8.1 mph - N/A   Overcast
8:53 AM 60.1 °F 55.9 °F 86% 30.01 in 8.0 mi South 6.9 mph - N/A   Overcast
9:00 AM 60.1 °F 55.9 °F 86% 30.01 in 9.0 mi South 5.8 mph - N/A   Overcast
9:10 AM 60.1 °F 55.9 °F 86% 30.01 in 10.0 mi SSW 5.8 mph - N/A   Overcast
9:25 AM 60.1 °F 55.9 °F 86% 30.01 in 9.0 mi South 5.8 mph - N/A   Overcast
9:53 AM 62.1 °F 55.9 °F 80% 30.01 in 10.0 mi South 4.6 mph - N/A   Overcast
10:53 AM 63.0 °F 55.9 °F 78% 30.01 in 10.0 mi South 6.9 mph - N/A   Overcast
11:10 AM 63.0 °F 55.0 °F 75% 30.01 in 10.0 mi West 6.9 mph - N/A   Overcast
11:53 AM 63.0 °F 55.0 °F 75% 30.01 in 10.0 mi SW 6.9 mph - N/A   Overcast
12:53 PM 64.9 °F 55.0 °F 70% 30.00 in 10.0 mi WSW 8.1 mph - N/A   Overcast
1:53 PM 66.9 °F 55.9 °F 68% 29.99 in 10.0 mi SW 6.9 mph - N/A   Overcast
2:53 PM 66.9 °F 55.0 °F 66% 29.99 in 10.0 mi SW 11.5 mph - N/A   Overcast
3:53 PM 66.0 °F 55.0 °F 68% 29.99 in 10.0 mi WSW 6.9 mph - N/A   Overcast
4:53 PM 64.9 °F 55.0 °F 70% 29.99 in 10.0 mi WSW 8.1 mph - N/A   Overcast
5:53 PM 66.0 °F 55.9 °F 70% 29.98 in 10.0 mi WSW 8.1 mph - N/A   Overcast
6:29 PM 64.9 °F 55.0 °F 70% 29.98 in 10.0 mi SW 8.1 mph - N/A   Overcast
6:53 PM 64.9 °F 55.0 °F 70% 29.98 in 10.0 mi SW 6.9 mph - N/A   Overcast
7:53 PM 64.9 °F 55.0 °F 70% 29.99 in 10.0 mi SSW 4.6 mph - N/A   Overcast
8:53 PM 64.0 °F 55.9 °F 75% 29.99 in 10.0 mi SSW 4.6 mph - N/A   Overcast
9:53 PM 64.0 °F 55.9 °F 75% 30.00 in 10.0 mi SW 4.6 mph - N/A   Overcast
10:08 PM 64.0 °F 57.0 °F 78% 30.00 in 10.0 mi SSW 4.6 mph - N/A   Overcast
10:53 PM 64.0 °F 55.9 °F 75% 29.99 in 10.0 mi SSW 4.6 mph - N/A   Overcast
11:53 PM 61.0 °F 57.0 °F 87% 30.00 in 10.0 mi Calm Calm - N/A   Overcast